{"data":{"norad_id":65809,"epoch":"2026-09-20T12:04:06.092256Z","epoch_age_seconds":105806,"freshness":"FRESH","line1":"1 65809U 25218U   26263.50284829  .00019535  00000+0  60578-3 0  9994","line2":"2 65809  97.2849 120.8722 0001693  89.9993 270.1444 15.33448554 54336","mean_motion":15.33448554,"eccentricity":0.0001693,"inclination_deg":97.2849,"raan_deg":120.8722,"arg_perigee_deg":89.9993,"mean_anomaly_deg":270.1444,"bstar":0.00060578,"rev_number":5433,"period_min":93.905987014938,"perigee_km":464.37396703168,"apogee_km":466.69123355834,"semimajor_km":6843.669600295,"source":"CELESTRAK","updated_at":"2026-09-21T09:00:35.717373Z"}}